Wind_Speed
27 27 27 22 19 17 20 25 23 22 21 15 13 11 9 8 10 13 8 3 5 5 9 8 10 12 10 16 11 12 11 12 11 11 13 9 4 4 7 4 9 9 17 14
28 33 22 23 23 19 21 25 24 22 23 19 18 15 11 8 10 13 10 7 2 5 3 2 0 5 2 11 16 11 14 16 16 14 15 9 8 6 5 1 3 12 10 24
27 28 17 24 23 22 22 22 23 23 22 19 21 20 19 13 10 17 12 13 11 4 8 9 18 13 15 14 15 9 14 18 21 21 20 18 13 10 7 9 10 5 11 13
27 26 22 25 24 21 22 17 20 23 25 19 21 22 19 18 14 15 14 16 12 5 9 3 2 9 15 19 13 15 10 11 14 18 22 25 23 15 15 17 19 21 20 18
28 24 25 28 28 24 20 23 23 24 24 18 18 19 20 20 17 20 20 17 18 18 10 8 8 24 18 24 27 21 19 10 11 15 23 25 25 18 20 22 25 26 26 29
28 24 28 31 28 29 24 23 23 24 21 20 14 16 20 22 21 26 26 23 23 21 12 12 24 27 24 13 13 20 14 7 11 19 20 23 21 8 12 11 17 27 27 24
30 24 28 32 29 29 24 23 23 23 21 16 15 16 24 19 22 26 29 31 24 20 19 22 18 15 12 13 5 12 8 9 11 7 9 36 27 24 20 27 22 19 20 19
31 30 31 35 31 27 25 27 26 23 20 16 17 18 23 23 23 27 29 32 28 27 20 25 24 26 18 10 2 4 11 5 8 21 27 32 31 29 31 29 24 25 26 19
38 36 34 36 31 28 28 27 27 25 22 17 17 17 20 24 25 31 30 30 31 31 31 28 29 28 20 14 9 3 14 22 23 19 22 26 28 30 38 37 34 36 46 39
41 42 35 37 33 31 31 28 27 27 22 17 16 16 18 23 32 29 27 33 31 33 34 29 33 32 29 22 22 24 20 23 23 35 39 41 39 41 48 58 56 61 58 57
45 46 42 37 35 37 32 28 29 27 22 20 15 19 21 28 31 23 29 30 34 38 38 35 39 37 33 25 17 19 19 26 33 36 36 47 53 57 58 61 63 64 62 66
51 49 49 39 39 40 33 32 29 27 25 20 17 21 26 30 26 20 26 27 32 37 40 39 43 40 38 40 30 36 30 35 36 41 47 49 51 55 66 68 71 75 80 85
57 51 53 44 41 40 40 37 31 27 25 22 19 23 28 31 23 19 26 27 30 36 38 37 44 42 43 41 42 46 49 45 46 47 55 60 62 67 71 78 78 82 89 84
61 56 53 47 48 44 41 37 36 30 25 26 22 24 28 31 25 23 28 30 30 35 38 41 42 44 43 41 49 47 51 51 56 59 60 67 72 78 83 83 84 86 87 98
60 55 55 57 54 47 42 39 38 32 29 27 29 27 30 32 29 28 28 31 34 35 38 46 49 48 46 49 51 52 55 61 66 70 73 77 86 89 86 86 90 91 93 104
66 63 60 59 55 51 43 42 39 35 32 32 32 33 34 36 31 30 31 32 34 38 41 42 44 51 52 55 59 61 65 64 70 77 75 80 86 89 90 97 92 96 101 69
66 65 63 60 56 50 44 43 43 38 37 35 37 38 39 36 33 33 36 35 30 35 39 44 48 51 54 57 63 67 69 72 74 78 78 79 85 89 93 92 93 87 62 54
63 64 64 61 59 48 46 46 46 42 37 39 41 40 41 36 33 34 34 35 34 33 36 40 43 47 48 51 56 61 66 68 69 70 72 79 84 81 79 69 55 51 49 49
60 61 59 58 56 49 45 47 47 45 41 43 42 42 39 36 36 40 40 39 39 38 36 36 39 42 43 47 53 54 57 65 71 70 70 70 65 57 51 50 49 49 49 49
58 60 58 52 50 44 47 49 48 46 40 44 44 41 37 38 39 38 40 40 36 34 34 36 36 36 40 47 51 54 59 62 61 62 56 52 51 50 50 49 50 51 52 53
52 55 50 45 44 45 48 50 49 43 43 47 43 39 40 38 38 39 38 37 34 33 35 36 37 38 41 44 48 49 50 50 50 52 51 50 49 50 50 51 52 54 53 51
47 47 43 38 36 40 44 49 46 47 43 44 41 39 41 35 38 39 38 36 35 33 35 33 35 40 39 44 49 47 46 49 52 53 52 50 50 51 52 53 54 52 51 52
46 41 37 30 33 41 42 48 52 44 42 42 42 40 40 40 38 37 38 38 37 35 33 31 34 36 44 48 54 51 49 51 52 54 52 50 51 52 53 54 52 52 54 58
46 41 31 33 36 42 42 49 49 46 42 38 41 42 40 37 34 35 38 36 36 36 34 35 39 44 53 58 57 56 53 52 53 53 51 50 51 52 53 53 53 56 60 61
45 40 36 36 38 41 44 46 46 42 37 39 39 39 38 32 32 35 36 35 35 36 36 38 44 49 51 58 63 62 58 54 53 50 50 50 51 53 52 53 55 59 60 59
43 40 39 39 38 40 43 43 44 43 41 41 38 37 34 36 36 36 36 36 34 33 39 42 48 50 56 66 63 63 58 56 53 52 51 50 51 52 52 55 59 59 60 57
Wind_Direction
276 271 275 274 273 264 262 270 278 285 287 278 273 275 286 284 262 258 247 196 36 129 68 84 69 72 63 19 14 13 12 10 11 10 7 10 47 48 341 354 307 319 329 326
272 272 290 271 265 253 248 254 264 274 282 287 289 286 273 283 244 233 221 247 218 167 59 80 356 90 63 335 347 7 355 347 346 350 351 340 319 332 346 303 267 323 344 303
267 275 271 266 265 261 257 259 264 272 279 285 283 284 288 289 263 233 230 244 276 255 306 244 305 285 279 314 319 327 334 335 335 337 338 327 308 286 263 216 218 219 238 271
264 273 261 265 266 265 265 265 262 265 269 269 269 275 282 280 282 270 243 232 242 171 126 144 233 297 288 303 303 288 288 312 315 320 318 317 307 276 258 253 250 247 237 237
271 280 273 263 264 260 255 244 247 251 257 258 268 274 277 278 282 278 268 231 226 207 207 238 303 270 288 305 293 279 279 289 285 295 304 305 294 280 274 274 270 265 261 256
270 274 273 273 277 271 271 266 264 264 267 275 260 262 268 272 274 270 268 249 234 213 210 256 288 248 287 298 279 285 274 282 307 335 322 299 271 276 311 319 294 273 264 255
265 271 277 274 274 272 275 273 273 271 269 272 267 255 258 267 263 262 262 254 241 234 215 238 267 261 259 271 285 321 283 276 275 304 301 285 265 254 295 319 309 302 279 261
269 267 267 273 279 283 280 270 265 272 268 261 258 254 253 254 254 253 255 251 245 239 233 236 249 249 258 246 335 264 246 247 206 209 248 252 269 247 282 309 299 304 301 270
266 266 263 269 277 276 271 273 272 270 273 266 262 265 265 258 252 248 254 257 247 245 245 235 239 242 236 235 254 279 276 251 248 242 239 247 260 269 284 299 293 302 305 305
266 267 264 263 267 270 270 270 272 269 273 277 266 264 266 257 251 253 252 254 253 247 242 237 241 237 251 253 256 273 282 269 257 255 250 267 273 276 284 290 293 300 305 304
264 268 263 262 261 259 263 268 268 271 266 269 267 263 264 255 256 258 255 249 245 245 240 236 240 249 254 247 256 275 265 262 254 257 272 276 277 277 279 287 294 298 299 299
259 261 264 261 259 263 261 261 265 266 262 263 269 262 260 263 266 265 260 251 240 236 242 237 241 248 256 251 239 242 252 248 255 259 262 270 281 286 295 293 291 294 291 288
257 256 258 257 260 261 259 257 262 262 263 258 263 264 261 263 266 269 262 258 247 236 246 253 246 254 256 252 249 244 245 262 261 268 275 282 283 287 283 287 293 292 301 305
255 254 257 256 256 256 258 257 258 261 258 252 255 261 267 266 264 260 262 264 260 248 249 254 256 259 268 272 262 263 264 263 264 263 274 272 274 279 281 283 292 291 297 306
249 250 254 257 257 257 256 256 255 257 254 253 251 256 260 260 259 264 264 267 268 266 257 253 257 260 264 266 272 275 274 274 272 276 278 279 288 290 293 298 297 298 299 302
251 252 252 253 254 255 252 255 254 250 248 250 248 250 255 258 258 261 264 264 266 264 270 269 266 265 268 272 273 274 279 281 280 284 286 287 288 292 293 293 294 296 299 297
251 251 251 250 250 248 248 249 252 247 245 247 247 250 253 259 262 261 260 261 258 265 268 269 267 266 267 270 273 278 280 282 282 285 288 290 290 291 293 295 296 296 291 292
247 246 245 243 243 243 243 244 246 244 243 246 245 249 254 258 266 266 262 269 270 265 268 270 272 275 278 279 280 277 277 281 285 290 293 296 297 297 294 291 287 290 293 294
242 243 242 237 236 235 240 241 239 240 240 244 245 248 254 263 258 257 262 268 267 272 280 288 292 291 289 285 285 289 292 293 292 293 293 291 288 290 294 296 299 299 299 298
239 239 237 232 232 230 231 232 233 235 237 243 244 246 249 250 256 258 263 272 271 283 290 291 305 297 294 299 297 293 290 291 291 290 296 303 303 303 303 302 302 302 302 300
235 235 233 229 230 227 226 226 230 233 231 240 244 248 250 255 261 265 271 274 283 297 298 300 300 302 306 307 309 308 303 302 306 310 311 310 307 306 305 305 305 304 303 301
225 229 230 223 227 227 224 229 225 225 231 238 245 250 255 262 264 267 273 278 289 297 296 298 309 319 325 331 327 314 312 314 314 316 313 311 308 306 306 306 305 304 303 302
219 222 220 206 214 218 217 225 228 224 229 236 243 248 253 257 265 272 275 281 287 291 291 301 310 321 322 329 333 328 321 316 316 317 314 310 307 307 307 306 306 306 306 306
218 215 206 196 209 213 211 223 226 222 226 234 243 248 253 257 264 269 275 281 285 291 293 290 292 300 310 320 329 330 323 317 317 316 313 310 310 309 308 309 310 310 311 311
220 214 203 198 206 210 213 219 225 222 230 235 240 248 256 259 264 267 274 280 286 288 288 293 299 302 310 323 328 327 322 318 317 316 314 312 309 309 310 311 312 313 314 314
217 212 203 201 201 207 213 216 219 220 227 234 241 247 256 261 267 271 278 279 279 286 280 287 304 303 310 322 320 322 320 319 319 316 315 312 312 312 312 313 316 316 316 316
Height
10963 10961 10963 10964 10964 10963 10960 10957 10957 10958 10957 10959 10961 10962 10963 10963 10962 10961 10963 10961 10958 10957 10956 10957 10957 10955 10955 10955 10955 10955 10953 10953 10952 10953 10955 10955 10954 10953 10952 10952 10951 10951 10950 10949
10956 10953 10961 10957 10957 10958 10957 10955 10956 10957 10954 10955 10955 10956 10960 10961 10960 10960 10962 10959 10959 10959 10957 10957 10957 10956 10956 10957 10956 10955 10954 10953 10953 10953 10953 10955 10954 10953 10952 10953 10953 10953 10941 10948
10948 10949 10955 10950 10951 10953 10952 10953 10954 10955 10954 10954 10952 10952 10954 10958 10958 10958 10960 10958 10957 10958 10955 10955 10956 10954 10954 10952 10953 10953 10952 10952 10952 10951 10952 10952 10953 10951 10951 10954 10954 10952 10951 10949
10941 10944 10946 10945 10945 10949 10949 10951 10950 10950 10950 10952 10950 10950 10951 10953 10954 10953 10953 10953 10951 10952 10950 10950 10949 10950 10952 10951 10950 10950 10950 10949 10949 10949 10951 10953 10951 10949 10947 10947 10948 10950 10948 10945
10933 10938 10938 10937 10938 10942 10944 10943 10943 10944 10944 10948 10948 10949 10947 10947 10949 10946 10946 10947 10946 10944 10944 10947 10951 10949 10948 10949 10947 10946 10946 10948 10946 10948 10950 10950 10949 10946 10944 10943 10943 10943 10941 10939
10928 10932 10931 10931 10934 10935 10939 10939 10940 10940 10943 10944 10946 10947 10943 10944 10945 10941 10941 10942 10941 10942 10946 10949 10947 10947 10947 10945 10943 10940 10941 10940 10943 10946 10948 10948 10945 10942 10939 10936 10936 10936 10934 10933
10922 10925 10924 10924 10927 10928 10933 10934 10935 10936 10938 10941 10942 10941 10940 10942 10940 10938 10936 10935 10938 10941 10943 10944 10946 10945 10942 10941 10939 10935 10933 10933 10934 10942 10943 10944 10938 10936 10932 10931 10930 10930 10928 10925
10916 10918 10918 10917 10921 10926 10927 10927 10928 10930 10932 10935 10936 10937 10936 10937 10936 10932 10931 10930 10933 10935 10940 10940 10941 10939 10936 10936 10930 10932 10929 10932 10927 10923 10937 10932 10927 10926 10925 10924 10925 10925 10924 10920
10906 10910 10913 10912 10914 10918 10920 10920 10921 10925 10927 10929 10930 10932 10931 10930 10930 10925 10926 10925 10927 10929 10932 10936 10934 10931 10934 10928 10927 10926 10925 10925 10922 10919 10919 10918 10917 10917 10916 10912 10912 10914 10911 10910
10898 10898 10906 10907 10910 10911 10913 10914 10915 10918 10922 10924 10925 10924 10923 10923 10919 10922 10922 10918 10920 10921 10926 10928 10927 10927 10925 10922 10919 10918 10919 10917 10917 10918 10916 10912 10911 10908 10906 10903 10898 10897 10894 10893
10889 10891 10895 10900 10903 10901 10906 10909 10909 10911 10915 10916 10918 10917 10915 10912 10913 10920 10915 10914 10914 10914 10916 10920 10919 10920 10920 10917 10915 10915 10914 10913 10914 10913 10911 10907 10901 10897 10893 10890 10887 10884 10878 10876
10878 10881 10882 10892 10894 10896 10902 10902 10904 10906 10908 10912 10914 10911 10909 10907 10910 10913 10907 10905 10906 10908 10909 10912 10912 10911 10913 10912 10911 10909 10906 10903 10901 10897 10894 10891 10886 10882 10879 10874 10864 10864 10866 10858
10867 10874 10871 10884 10887 10889 10892 10895 10899 10901 10902 10906 10907 10906 10904 10901 10904 10906 10901 10898 10900 10901 10902 10903 10905 10905 10903 10904 10902 10898 10897 10896 10890 10886 10882 10877 10872 10867 10862 10855 10854 10850 10841 10835
10854 10863 10866 10874 10874 10879 10883 10889 10892 10894 10897 10898 10900 10899 10897 10896 10898 10898 10894 10891 10891 10893 10895 10895 10898 10898 10897 10897 10892 10892 10889 10888 10888 10882 10879 10873 10866 10861 10857 10851 10845 10836 10829 10816
10843 10853 10857 10859 10864 10871 10877 10880 10883 10887 10889 10893 10893 10893 10891 10888 10890 10892 10890 10888 10887 10887 10887 10889 10891 10891 10891 10888 10886 10883 10882 10878 10875 10870 10866 10861 10854 10847 10839 10830 10823 10818 10812 10807
10833 10841 10845 10847 10853 10861 10867 10871 10874 10879 10880 10883 10886 10884 10882 10881 10886 10888 10886 10884 10883 10880 10880 10884 10885 10884 10881 10879 10878 10875 10871 10867 10863 10859 10852 10846 10838 10829 10824 10818 10810 10802 10795 10788
10819 10824 10829 10835 10840 10849 10859 10862 10863 10869 10871 10873 10877 10876 10874 10876 10879 10881 10880 10880 10879 10877 10876 10875 10874 10874 10874 10872 10868 10863 10858 10854 10848 10844 10839 10832 10825 10817 10809 10799 10791 10786 10780 10774
10799 10804 10809 10817 10825 10841 10848 10850 10854 10858 10863 10863 10866 10867 10866 10871 10873 10873 10873 10872 10872 10872 10870 10867 10865 10862 10861 10860 10854 10851 10846 10840 10835 10829 10821 10811 10804 10796 10789 10783 10777 10771 10765 10759
10783 10787 10794 10803 10813 10828 10838 10840 10842 10846 10851 10853 10857 10858 10861 10865 10862 10863 10865 10865 10865 10864 10861 10857 10855 10852 10849 10845 10838 10834 10827 10823 10819 10814 10807 10799 10792 10783 10774 10767 10761 10755 10749 10743
10768 10772 10779 10792 10803 10818 10822 10826 10832 10834 10842 10840 10845 10849 10854 10853 10855 10857 10858 10857 10856 10855 10852 10850 10846 10842 10837 10830 10825 10821 10818 10813 10807 10800 10791 10781 10773 10767 10761 10754 10748 10742 10735 10729
10757 10762 10774 10785 10794 10805 10810 10815 10820 10828 10828 10829 10835 10842 10842 10846 10850 10849 10849 10848 10847 10846 10843 10840 10837 10832 10826 10822 10816 10811 10805 10798 10790 10782 10775 10768 10762 10755 10749 10742 10736 10729 10722 10715
10745 10755 10768 10779 10788 10797 10802 10807 10811 10811 10820 10824 10829 10834 10833 10839 10838 10839 10840 10840 10839 10838 10835 10833 10830 10825 10821 10817 10808 10800 10792 10784 10777 10770 10763 10756 10751 10745 10738 10731 10723 10716 10709 10702
10737 10750 10761 10771 10778 10783 10790 10795 10797 10807 10811 10815 10821 10824 10827 10829 10832 10833 10833 10833 10831 10830 10827 10825 10822 10818 10814 10807 10799 10790 10783 10775 10767 10760 10751 10745 10740 10733 10725 10717 10710 10702 10695 10687
10733 10743 10756 10761 10767 10773 10781 10783 10791 10797 10803 10810 10814 10817 10820 10823 10825 10825 10825 10824 10823 10820 10818 10816 10814 10809 10805 10799 10789 10782 10774 10765 10757 10748 10741 10734 10727 10719 10711 10703 10695 10687 10678 10668
10727 10739 10748 10753 10757 10765 10772 10778 10785 10793 10797 10801 10804 10808 10812 10817 10817 10816 10816 10816 10815 10814 10811 10810 10806 10802 10797 10789 10779 10770 10762 10753 10745 10737 10729 10722 10715 10707 10699 10691 10683 10673 10662 10652
10722 10735 10740 10742 10748 10757 10762 10770 10777 10783 10789 10794 10799 10802 10807 10808 10810 10809 10808 10807 10807 10806 10803 10801 10797 10792 10785 10778 10768 10758 10749 10740 10731 10723 10716 10708 10701 10693 10685 10678 10668 10657 10647 10638